FW9302 Weather Reports


time (UTC)temp
F
wind
direction
speed
knots
gust
knots
rain 1hr
in
rain 24hr
in
rain mn
in
humidity
%
barometer
mb
20260906122017 0 164 0.0 1.7 0.00 0.00 0.00 1013.6
20260906121513 0 174 0.9 1.7 0.00 0.00 0.00 1013.5
20260906121009 0 354 0.0 1.7 0.00 0.00 0.00 1013.6
20260906120504 0 112 0.9 1.7 0.00 0.00 0.00 1013.3
20260906120002 0 9 0.0 0.9 0.00 0.00 0.00 1013.4
20260906115456 0 9 0.0 0.9 0.00 0.00 0.00 1013.1
20260906114956 0 214 0.0 0.9 0.00 0.00 0.00 1013.2
20260906114451 0 189 0.0 0.9 0.00 0.00 0.00 1013.1
20260906113947 0 116 0.0 1.7 0.00 0.00 0.00 1013.3
20260906113445 0 150 0.0 1.7 0.00 0.00 0.00 1013.1
20260906112941 0 67 0.9 1.7 0.00 0.00 0.00 1013.1
20260906112436 0 235 0.0 0.9 0.00 0.00 0.00 1012.7
20260906111931 0 342 0.0 0.9 0.00 0.00 0.00 1012.8
20260906111431 0 160 0.0 1.7 0.00 0.00 0.00 1012.7
20260906110926 0 247 0.0 0.0 0.00 0.00 0.00 1012.6
20260906110421 0 230 0.0 1.7 0.00 0.00 0.00 1012.6
20260906105921 0 216 0.0 0.9 0.00 0.00 0.00 1012.8
20260906105417 0 249 0.0 1.7 0.00 0.00 0.00 1012.7
20260906104912 0 3 0.0 1.7 0.00 0.00 0.00 1012.6
20260906104410 0 194 0.0 0.9 0.00 0.00 0.00 1012.5
20260906103909 0 352 0.0 0.9 0.00 0.00 0.00 1012.7
20260906103407 0 36 0.0 1.7 0.00 0.00 0.00 1012.7
20260906102904 0 39 0.0 0.9 0.00 0.00 0.00 1012.8
20260906102402 0 155 0.0 1.7 0.00 0.00 0.00 1012.6
20260906101858 0 177 0.0 0.9 0.00 0.00 0.00 1012.4
20260906101353 0 138 0.0 1.7 0.00 0.00 0.00 1012.6
20260906100848 0 157 0.0 0.9 0.00 0.00 0.00 1012.6
20260906100347 0 49 0.0 0.9 0.00 0.00 0.00 1012.7
20260906095843 0 150 0.0 1.7 0.00 0.00 0.00 1012.8
20260906095338 0 184 0.0 0.9 0.00 0.00 0.00 1012.7
20260906094837 0 100 0.0 1.7 0.00 0.00 0.00 1012.6
20260906094332 0 4 0.0 0.9 0.00 0.00 0.00 1012.6
20260906093829 0 194 0.0 1.7 0.00 0.00 0.00 1012.7
20260906093324 0 144 0.0 1.7 0.00 0.00 0.00 1012.5
20260906092819 0 257 0.0 1.7 0.00 0.00 0.00 1012.5
20260906092313 0 246 0.9 1.7 0.00 0.00 0.00 1012.7
20260906091804 0 257 0.0 0.9 0.00 0.00 0.00 1012.9
20260906091300 0 1 0.0 0.9 0.00 0.00 0.00 1012.9
20260906090756 0 247 0.0 0.9 0.00 0.00 0.00 1012.8
20260906090254 0 79 0.9 1.7 0.00 0.00 0.00 1012.8
20260906085754 0 93 0.9 2.6 0.00 0.00 0.00 1012.7
20260906085247 0 95 1.7 2.6 0.00 0.00 0.00 1012.9
20260906084742 0 109 1.7 2.6 0.00 0.00 0.00 1013.0
20260906084236 0 90 1.7 2.6 0.00 0.00 0.00 1013.1
20260906083732 0 125 1.7 2.6 0.00 0.00 0.00 1013.2
20260906083227 0 183 0.9 1.7 0.00 0.00 0.00 1013.4
20260906082722 0 55 0.0 1.7 0.00 0.00 0.00 1013.2
20260906082217 0 105 1.7 2.6 0.00 0.00 0.00 1013.1
20260906081713 0 118 1.7 2.6 0.00 0.00 0.00 1013.1
20260906081208 0 97 1.7 2.6 0.00 0.00 0.00 1013.1
20260906080704 0 118 0.9 1.7 0.00 0.00 0.00 1012.8
20260906080154 0 51 0.9 2.6 0.00 0.00 0.00 1012.9
20260906075654 0 78 1.7 1.7 0.00 0.00 0.00 1012.9
20260906075143 0 126 0.9 1.7 0.00 0.00 0.00 1012.8
20260906074638 0 130 1.7 1.7 0.00 0.00 0.00 1012.6
20260906074137 0 213 0.0 0.9 0.00 0.00 0.00 1012.6
20260906073632 0 115 0.0 1.7 0.00 0.00 0.00 1012.5
20260906073127 0 168 0.9 2.6 0.00 0.00 0.00 1012.4
20260906072617 0 49 0.0 3.5 0.00 0.00 0.00 1012.3
20260906072112 0 161 0.9 4.3 0.00 0.00 0.00 1012.7
20260906071608 0 91 1.7 1.7 0.00 0.00 0.00 1012.8
20260906071103 0 75 0.9 1.7 0.00 0.00 0.00 1012.3
20260906070600 0 189 0.0 0.0 0.00 0.00 0.00 1012.4
20260906070054 0 349 0.0 0.0 0.00 0.00 0.00 1012.1
20260906065554 0 346 0.9 1.7 0.00 0.00 0.00 1012.5
20260906065050 0 189 0.0 0.0 0.00 0.00 0.00 1012.6
20260906064545 0 145 1.7 1.7 0.00 0.00 0.00 1012.8
20260906064035 0 114 0.9 1.7 0.00 0.00 0.00 1012.9
20260906063530 0 55 0.0 0.9 0.00 0.00 0.00 1013.2
20260906063026 0 121 0.0 1.7 0.00 0.00 0.00 1013.0
20260906062521 0 241 1.7 1.7 0.00 0.00 0.00 1012.9
20260906062015 0 151 0.9 1.7 0.00 0.00 0.00 1013.0
20260906061511 0 254 0.0 0.0 0.00 0.00 0.00 1012.9
20260906061005 0 96 0.9 1.7 0.00 0.00 0.00 1013.1
20260906060502 0 107 1.7 1.7 0.00 0.00 0.00 1012.9
20260906055958 0 348 0.0 1.7 0.00 0.00 0.00 1012.9
20260906055454 0 115 0.0 0.9 0.00 0.00 0.00 1013.1
20260906054949 0 235 0.0 1.7 0.00 0.00 0.00 1013.0
20260906054449 0 250 0.9 2.6 0.00 0.00 0.00 1013.2
20260906053944 0 225 0.0 0.9 0.00 0.00 0.00 1013.0
20260906053441 0 82 0.9 1.7 0.00 0.00 0.00 1013.0
20260906052936 0 229 0.0 0.9 0.00 0.00 0.00 1012.9
20260906052432 0 137 0.0 1.7 0.00 0.00 0.00 1012.7
20260906051929 0 264 0.0 0.9 0.00 0.00 0.00 1012.6
20260906051424 0 235 0.0 1.7 0.00 0.00 0.00 1012.8
20260906050920 0 237 1.7 1.7 0.00 0.00 0.00 1012.8
20260906050419 0 35 0.9 1.7 0.00 0.00 0.00 1013.0
20260906045919 0 264 0.0 1.7 0.00 0.00 0.00 1013.0
20260906045417 0 138 0.0 1.7 0.00 0.00 0.00 1013.0
20260906044914 0 247 0.0 0.0 0.00 0.00 0.00 1013.4
20260906044413 0 340 0.0 0.9 0.00 0.00 0.00 1013.4
20260906043909 0 115 0.0 1.7 0.00 0.00 0.00 1013.4
20260906043405 0 0 1.7 1.7 0.00 0.00 0.00 1013.2
20260906042900 0 9 0.0 0.9 0.00 0.00 0.00 1013.3
20260906042359 0 234 0.0 1.7 0.00 0.00 0.00 1013.4
20260906041855 0 150 0.0 0.0 0.00 0.00 0.00 1013.4
20260906041350 0 158 0.0 1.7 0.00 0.00 0.00 1013.4
20260906040845 0 55 0.0 0.9 0.00 0.00 0.00 1013.5
20260906040341 0 144 0.0 0.9 0.00 0.00 0.00 1013.2
20260906035836 0 356 0.0 0.0 0.00 0.00 0.00 1013.2
20260906035331 0 356 0.0 0.0 0.00 0.00 0.00 1013.3
20260906034826 0 356 0.0 0.9 0.00 0.00 0.00 1013.3
20260906034321 0 229 0.0 0.9 0.00 0.00 0.00 1013.3
20260906033817 0 346 0.0 0.9 0.00 0.00 0.00 1013.4
20260906033316 0 83 0.0 0.0 0.00 0.00 0.00 1013.4
20260906032813 0 83 0.0 0.0 0.00 0.00 0.00 1013.5
20260906032308 0 100 0.0 0.9 0.00 0.00 0.00 1013.4
20260906031803 0 349 0.0 1.7 0.00 0.00 0.00 1013.4
20260906031259 0 137 0.0 0.9 0.00 0.00 0.00 1013.7
20260906030758 0 141 0.9 2.6 0.00 0.00 0.00 1013.7
20260906030254 0 92 0.0 0.9 0.00 0.00 0.00 1013.4
20260906025753 0 111 0.9 1.7 0.00 0.00 0.00 1013.4
20260906025248 0 241 0.0 0.0 0.00 0.00 0.00 1013.3
20260906024746 0 241 0.0 0.0 0.00 0.00 0.00 1013.1
20260906024240 0 241 0.0 0.0 0.00 0.00 0.00 1012.8
20260906023736 0 264 0.0 0.0 0.00 0.00 0.00 1012.9
20260906023231 0 264 0.0 0.0 0.00 0.00 0.00 1013.0
20260906022726 0 264 0.0 0.9 0.00 0.00 0.00 1013.2
20260906022221 0 265 0.0 0.9 0.00 0.00 0.00 1013.0
20260906021718 0 357 0.0 0.0 0.00 0.00 0.00 1012.8
20260906021216 0 83 0.0 0.0 0.00 0.00 0.00 1012.9
20260906020711 0 100 0.0 1.7 0.00 0.00 0.00 1013.0
20260906020205 0 266 0.0 0.9 0.00 0.00 0.00 1013.0
20260906015700 0 330 0.0 0.0 0.00 0.00 0.00 1012.8
20260906015158 0 330 0.0 0.0 0.00 0.00 0.00 1012.7
20260906014653 0 343 0.0 0.9 0.00 0.00 0.00 1012.6
20260906014149 0 330 0.0 0.0 0.00 0.00 0.00 1012.5
20260906013644 0 330 0.0 1.7 0.00 0.00 0.00 1012.5
20260906013139 0 81 0.0 1.7 0.00 0.00 0.00 1012.5
20260906012634 0 147 0.9 1.7 0.00 0.00 0.00 1012.5
20260906012129 0 209 0.0 1.7 0.00 0.00 0.00 1012.4
20260906011624 0 117 0.0 0.9 0.00 0.00 0.00 1012.2
20260906011118 0 115 0.0 0.9 0.00 0.00 0.00 1012.3
20260906010614 0 35 0.9 1.7 0.00 0.00 0.00 1012.3
20260906010110 0 176 0.0 1.7 0.00 0.00 0.00 1012.2
20260906005604 0 121 0.0 2.6 0.00 0.00 0.00 1012.4
20260906005103 0 149 0.9 2.6 0.00 0.00 0.00 1012.2
20260906004602 0 21 1.7 1.7 0.00 0.00 0.00 1012.2
20260906004057 0 62 0.0 0.9 0.00 0.00 0.00 1012.3
20260906003553 0 3 0.0 1.7 0.00 0.00 0.00 1012.2
20260906003048 0 37 0.0 0.9 0.00 0.00 0.00 1012.0
20260906002543 0 121 0.9 1.7 0.00 0.00 0.00 1012.0
20260906002038 0 247 0.0 0.9 0.00 0.00 0.00 1011.9
20260906001533 0 133 0.0 1.7 0.00 0.00 0.00 1011.9
20260906001027 0 137 0.0 0.0 0.00 0.00 0.00 1012.0
20260906000523 0 33 0.9 1.7 0.00 0.00 0.00 1012.3
20260906000018 0 55 0.0 0.9 0.00 0.00 0.00 1012.2
20260905235511 0 224 1.7 1.7 0.00 0.00 0.00 1012.2
20260905235007 0 226 2.6 2.6 0.00 0.00 0.00 1012.2
20260905234502 0 242 0.0 0.9 0.00 0.00 0.00 1012.4
20260905233956 0 233 0.0 1.7 0.00 0.00 0.00 1012.5
20260905233452 0 111 0.9 1.7 0.00 0.00 0.00 1012.3
20260905232950 0 280 0.0 0.0 0.00 0.00 0.00 1012.2
20260905232447 0 264 0.0 0.9 0.00 0.00 0.00 1012.0
20260905231942 0 257 0.0 0.9 0.00 0.00 0.00 1012.1
20260905231437 0 217 0.0 0.9 0.00 0.00 0.00 1011.8
20260905230928 0 69 0.0 1.7 0.00 0.00 0.00 1012.0
20260905230426 0 229 0.0 0.9 0.00 0.00 0.00 1011.9
20260905225919 0 146 1.7 2.6 0.00 0.00 0.00 1011.7
20260905225415 0 184 0.0 0.9 0.00 0.00 0.00 1011.6
20260905224910 0 121 0.0 1.7 0.00 0.00 0.00 1011.7
20260905224406 0 140 0.0 0.9 0.00 0.00 0.00 1011.6
20260905223859 0 77 1.7 1.7 0.00 0.00 0.00 1012.0
20260905223357 0 115 0.9 2.6 0.00 0.00 0.00 1011.9
20260905222852 0 130 0.9 2.6 0.00 0.00 0.00 1012.0
20260905222350 0 121 1.7 2.6 0.00 0.00 0.00 1012.1
20260905221841 0 150 0.0 2.6 0.00 0.00 0.00 1012.1
20260905221337 0 143 0.0 1.7 0.00 0.00 0.00 1012.3
20260905220833 0 119 0.0 1.7 0.00 0.00 0.00 1012.5
20260905220329 0 8 0.9 2.6 0.00 0.00 0.00 1012.4
20260905215828 0 352 2.6 3.5 0.00 0.00 0.00 1012.4
20260905215324 0 126 0.9 1.7 0.00 0.00 0.00 1012.6
20260905214821 0 147 1.7 1.7 0.00 0.00 0.00 1012.7
20260905214315 0 348 1.7 2.6 0.00 0.00 0.00 1012.5
20260905213810 0 131 1.7 2.6 0.00 0.00 0.00 1012.5
20260905213306 0 131 1.7 4.3 0.00 0.00 0.00 1012.3
20260905212801 0 1 4.3 5.2 0.00 0.00 0.00 1012.7
20260905212300 0 59 0.9 2.6 0.00 0.00 0.00 1012.5
20260905211755 0 121 1.7 4.3 0.00 0.00 0.00 1012.4
20260905211250 0 28 1.7 2.6 0.00 0.00 0.00 1012.5
20260905210748 0 111 0.9 3.5 0.00 0.00 0.00 1012.4
20260905210246 0 98 1.7 3.5 0.00 0.00 0.00 1012.6
20260905205745 0 69 0.9 3.5 0.00 0.00 0.00 1012.4
20260905205240 0 121 1.7 4.3 0.00 0.00 0.00 1012.5
20260905204739 0 142 3.5 7.0 0.00 0.00 0.00 1012.6
20260905204235 0 158 0.9 2.6 0.00 0.00 0.00 1012.7
20260905203734 0 56 2.6 4.3 0.00 0.00 0.00 1012.9
20260905203230 0 42 2.6 3.5 0.00 0.00 0.00 1013.1
20260905202725 0 4 0.9 4.3 0.00 0.00 0.00 1012.8
20260905202221 0 101 3.5 4.3 0.00 0.00 0.00 1012.9
20260905201716 0 114 3.5 8.7 0.00 0.00 0.00 1012.7
20260905201217 0 78 2.6 8.7 0.00 0.00 0.00 1012.3
20260905200712 0 52 1.7 3.5 0.00 0.00 0.00 1012.2
20260905200208 0 274 1.7 3.5 0.00 0.00 0.00 1011.9
20260905195706 0 95 2.6 6.1 0.00 0.00 0.00 1012.1
20260905195201 0 99 2.6 3.5 0.00 0.00 0.00 1012.2
20260905194656 0 97 2.6 3.5 0.00 0.00 0.00 1012.2
20260905194155 0 30 0.0 4.3 0.00 0.00 0.00 1012.3
20260905193650 0 5 0.9 1.7 0.00 0.00 0.00 1012.3
20260905193144 0 139 0.0 2.6 0.00 0.00 0.00 1012.4
20260905192635 0 9 0.0 4.3 0.00 0.00 0.00 1012.2
20260905192131 0 285 0.0 3.5 0.00 0.00 0.00 1012.4
20260905191631 0 286 0.0 1.7 0.00 0.00 0.00 1012.6
20260905191128 0 264 0.0 0.0 0.00 0.00 0.00 1012.7
20260905190627 0 264 0.0 0.9 0.00 0.00 0.00 1012.7
20260905190127 0 346 0.0 0.0 0.00 0.00 0.00 1012.7
20260905185626 0 178 0.0 0.9 0.00 0.00 0.00 1013.0
20260905185120 0 295 0.0 1.7 0.00 0.00 0.00 1012.9
20260905184615 0 129 0.0 1.7 0.00 0.00 0.00 1013.1
20260905184114 0 242 0.0 2.6 0.00 0.00 0.00 1012.8
20260905183613 0 143 0.0 2.6 0.00 0.00 0.00 1012.8
20260905183109 0 237 0.9 2.6 0.00 0.00 0.00 1012.7
20260905182608 0 152 1.7 3.5 0.00 0.00 0.00 1012.8
20260905182102 0 242 0.0 1.7 0.00 0.00 0.00 1012.6
20260905181602 0 90 0.9 2.6 0.00 0.00 0.00 1012.9
20260905181101 0 44 4.3 4.3 0.00 0.00 0.00 1013.1
20260905180556 0 307 0.0 5.2 0.00 0.00 0.00 1013.0
20260905180052 0 195 0.9 2.6 0.00 0.00 0.00 1013.1
20260905175551 0 199 2.6 5.2 0.00 0.00 0.00 1013.2
20260905175047 0 273 0.9 3.5 0.00 0.00 0.00 1013.4
20260905174542 0 161 1.7 4.3 0.00 0.00 0.00 1013.3
20260905174037 0 88 1.7 3.5 0.00 0.00 0.00 1013.4
20260905173534 0 115 5.2 6.1 0.00 0.00 0.00 1013.4
20260905173029 0 85 2.6 3.5 0.00 0.00 0.00 1013.5
20260905172527 0 172 1.7 4.3 0.00 0.00 0.00 1013.7
20260905172023 0 359 2.6 4.3 0.00 0.00 0.00 1013.6
20260905171519 0 105 0.0 2.6 0.00 0.00 0.00 1013.8
20260905171015 0 171 0.0 2.6 0.00 0.00 0.00 1013.5
20260905170512 0 89 1.7 2.6 0.00 0.00 0.00 1013.6
20260905170006 0 118 1.7 4.3 0.00 0.00 0.00 1013.8
20260905165500 0 19 2.6 2.6 0.00 0.00 0.00 1013.7
20260905164950 0 90 0.9 6.1 0.00 0.00 0.00 1014.0
20260905164450 0 41 2.6 4.3 0.00 0.00 0.00 1013.9
20260905163944 0 50 0.0 2.6 0.00 0.00 0.00 1014.1
20260905163441 0 65 1.7 3.5 0.00 0.00 0.00 1014.1
20260905162937 0 350 0.9 2.6 0.00 0.00 0.00 1014.2
20260905162432 0 357 1.7 2.6 0.00 0.00 0.00 1014.2
20260905161927 0 158 0.0 2.6 0.00 0.00 0.00 1014.2
20260905161426 0 13 2.6 4.3 0.00 0.00 0.00 1014.3
20260905160924 0 19 3.5 4.3 0.00 0.00 0.00 1014.3
20260905160418 0 74 0.9 3.5 0.00 0.00 0.00 1014.4
20260905155913 0 56 0.0 2.6 0.00 0.00 0.00 1014.4
20260905155413 0 179 0.0 4.3 0.00 0.00 0.00 1014.5
20260905154911 0 93 0.0 3.5 0.00 0.00 0.00 1014.6
20260905154407 0 54 0.0 1.7 0.00 0.00 0.00 1014.6
20260905153902 0 68 0.9 1.7 0.00 0.00 0.00 1014.6
20260905153359 0 131 0.9 1.7 0.00 0.00 0.00 1014.6
20260905152858 0 246 0.0 2.6 0.00 0.00 0.00 1014.6
20260905152357 0 350 1.7 3.5 0.00 0.00 0.00 1014.9
20260905151853 0 73 0.0 2.6 0.00 0.00 0.00 1014.5
20260905151348 0 62 0.0 2.6 0.00 0.00 0.00 1014.5
20260905150843 0 162 0.0 1.7 0.00 0.00 0.00 1014.9
20260905150337 0 162 0.0 1.7 0.00 0.00 0.00 1014.5
20260905145834 0 132 0.0 1.7 0.00 0.00 0.00 1014.5
20260905145329 0 166 0.9 1.7 0.00 0.00 0.00 1015.0
20260905144828 0 144 0.0 1.7 0.00 0.00 0.00 1015.1
20260905144323 0 113 0.0 2.6 0.00 0.00 0.00 1015.0
20260905143821 0 155 0.0 1.7 0.00 0.00 0.00 1015.0
20260905143316 0 248 1.7 2.6 0.00 0.00 0.00 1015.0
20260905142816 0 44 0.0 1.7 0.00 0.00 0.00 1015.0
20260905142310 0 229 0.0 0.9 0.00 0.00 0.00 1014.9
20260905141806 0 23 0.0 1.7 0.00 0.00 0.00 1015.1
20260905141301 0 271 1.7 2.6 0.00 0.00 0.00 1014.9
20260905140756 0 328 0.0 2.6 0.00 0.00 0.00 1015.1
20260905140250 0 249 0.0 1.7 0.00 0.00 0.00 1015.1
20260905135749 0 251 1.7 2.6 0.00 0.00 0.00 1015.2
20260905135246 0 207 1.7 2.6 0.00 0.00 0.00 1015.0
20260905134745 0 113 0.0 0.9 0.00 0.00 0.00 1015.1
20260905134245 0 238 1.7 1.7 0.00 0.00 0.00 1015.0
20260905133739 0 163 0.0 1.7 0.00 0.00 0.00 1015.2
20260905133235 0 144 0.0 0.9 0.00 0.00 0.00 1015.2
20260905132734 0 125 0.0 0.9 0.00 0.00 0.00 1015.6
20260905132230 0 137 0.0 1.7 0.00 0.00 0.00 1015.3
20260905131724 0 189 0.0 0.9 0.00 0.00 0.00 1015.4
20260905131220 0 195 0.0 0.9 0.00 0.00 0.00 1015.4
20260905130714 0 137 0.0 1.7 0.00 0.00 0.00 1015.2
20260905130214 0 189 0.0 1.7 0.00 0.00 0.00 1015.2
20260905125709 0 221 0.0 1.7 0.00 0.00 0.00 1015.4
20260905125204 0 211 0.0 1.7 0.00 0.00 0.00 1015.2
20260905124700 0 241 0.9 1.7 0.00 0.00 0.00
20260905124155 0 213 0.0 1.7 0.00 0.00 0.00
20260905123650 0 235 0.0 0.9 0.00 0.00 0.00
20260905123148 0 199 0.0 0.9 0.00 0.00 0.00
20260905122647 0 217 0.0 0.0 0.00 0.00 0.00